Hourly Data Report for April 13, 2020

NANAIMO A
BRITISH COLUMBIA
Current Station Operator: NAVCAN

49°03'16.000" N
123°52'12.000" W
28.00 m
1025365
YCD

Download Data

Hourly Data (April 2020)
Hourly Data Report for April 13, 2020
TIME
LST
Temp Definition
°C
Dew Point Definition
°C
Rel Hum Definition
%
Precip. Amount Definition
mm

Wind Dir Definition
10's deg

Wind Spd Definition
km/h
Visibility Definition
km
Stn Press Definition
kPa
Hmdx Definition


Wind Chill Definition


Weather Definition


00:00 6.0 -7.2 38 LegendMM 23 2 LegendMM 102.39     LegendNANA
01:00 5.3 -6.0 44 LegendMM 26 12 LegendMM 102.45     LegendNANA
02:00 2.7 -5.2 56 LegendMM 24 4 LegendMM 102.49     LegendNANA
03:00 1.8 -4.7 62 LegendMM 22 3 LegendMM 102.54     LegendNANA
04:00 0.9 -4.3 68 LegendMM 19 4 LegendMM 102.56     LegendNANA
05:00 0.4 -4.4 70 LegendMM 20 5 LegendMM 102.61     LegendNANA
06:00 -0.4 -3.9 77 LegendMM 17 4 LegendMM 102.69   -2 LegendNANA
07:00 3.4 -1.8 69 LegendMM 1 1 LegendMM 102.72     LegendNANA
08:00 8.2 -1.2 51 LegendMM 13 3 LegendMM 102.72     LegendNANA
09:00 11.4 -0.7 43 LegendMM 6 6 LegendMM 102.74     LegendNANA
10:00 13.0 -2.9 33 LegendMM 14 10 LegendMM 102.74     LegendNANA
11:00 14.1 -3.5 29 LegendMM 8 14 LegendMM 102.74     LegendNANA
12:00 14.7 -1.7 32 LegendMM 6 10 LegendMM 102.68     LegendNANA
13:00 16.0 -1.7 30 LegendMM 5 11 LegendMM 102.64     LegendNANA
14:00 16.0 -3.5 26 LegendMM 6 11 LegendMM 102.61     LegendNANA
15:00 16.7 -3.1 26 LegendMM 4 4 LegendMM 102.57     LegendNANA
16:00 15.7 -3.5 26 LegendMM 15 14 LegendMM 102.52     LegendNANA
17:00 15.8 -3.1 27 LegendMM 8 10 LegendMM 102.48     LegendNANA
18:00 14.9 -3.5 28 LegendMM 10 3 LegendMM 102.46     LegendNANA
19:00 13.0 -1.4 37 LegendMM 25 2 LegendMM 102.41     LegendNANA
20:00 8.8 0.6 56 LegendMM 20 3 LegendMM 102.44     LegendNANA
21:00 9.8 0.5 52 LegendMM 25 12 LegendMM 102.41     LegendNANA
22:00 7.0 0.6 64 LegendMM 35 5 LegendMM 102.38     LegendNANA
23:00 6.3 0.0 64 LegendMM 27 4 LegendMM 102.38     LegendNANA

Notes on Data Quality.

Legend

  • E = Estimated
  • M = Missing
  • NA = Not Available*
  • [empty] = Indicates an unobserved value
Date modified: